Location: Ferintosh
(52.7647°N, 112.9692°W)
Time: 19:23:22
(UTC+00:00)

Explorer 7 - Pass Details

Date: 21 May 2024
Orbit: 466 x 622 km, 50.3° (Epoch: 16 June)

Event Time Altitude Azimuth Distance (km) Brightness Sun altitude
Rises 06:26:22 0° 203° (SSW) 2,534 - -15.7°
Reaches altitude 10° 06:29:06 10° 181° (S) 1,684 - -15.8°
Maximum altitude 06:31:30 16° 142° (SE) 1,372 - -15.9°
Exits shadow 06:33:56 10° 104° (ESE) 1,733 9.1 -16.0°
Drops below altitude 10° 06:33:58 10° 103° (ESE) 1,743 9.1 -16.0°
Sets 06:36:53 0° 82° (E) 2,672 10.3 -16.1°
